Location: Newark
(34.6501°N, 117.8502°W)
Time: 10:33:17
(UTC+00:00)

Hubble Space Telescope - Visible Passes

Search period start: 29 November 2022 00:00
Search period end: 09 December 2022 00:00
Orbit: 530 x 534 km, 28.5° (Epoch: 28 November)

Date Brightness Start Highest point End Pass type
(mag) Time Alt. Az. Time Alt. Az. Time Alt. Az.
04 Dec 3.6 13:51:07 10° S 13:52:44 12° SSE 13:54:22 10° SE visible
05 Dec 3.5 13:37:44 10° SSW 13:40:00 14° SSE 13:42:16 10° SE visible
06 Dec 3.3 13:24:35 10° SSW 13:27:16 17° SSE 13:29:58 10° ESE visible
07 Dec 3.0 13:11:33 10° SSW 13:14:33 20° SSE 13:17:32 10° ESE visible
08 Dec 2.8 12:59:55 16° SSW 13:01:50 22° SSE 13:05:02 10° ESE visible
